Location: ??
(35.4627°N, 139.3695°E)
Time: 15:52:52
(UTC+00:00)

Cosmos 1844 Rocket - Pass Details

Date: 25 November 2020
Orbit: 824 x 845 km, 71.0° (Epoch: 20 January)

Event Time Altitude Azimuth Distance (km) Brightness Sun altitude
Rises 20:29:27 0° 199° (SSW) 3,364 5.8 -12.0°
Reaches altitude 10° 20:31:52 10° 200° (SSW) 2,437 5.1 -11.6°
Maximum altitude 20:37:28 90° 123° (ESE) 843 2.7 -10.5°
Drops below altitude 10° 20:43:09 10° 21° (NNE) 2,465 5.2 -9.4°
Sets 20:45:36 0° 22° (NNE) 3,405 5.9 -8.9°
